| time (UTC) | temp F | wind direction | speed MPH | gust MPH | rain 1hr in | rain 24hr in | rain mn in | humidity % | barometer mb |
| 20260507150003 | 68 | 129 | 3.0 | 11.0 | 0.00 | 0.04 | 0.04 | 63 | 1009.5 |
| 20260507145503 | 69 | 136 | 3.0 | 9.0 | 0.00 | 0.04 | 0.04 | 62 | 1009.6 |
| 20260507145003 | 69 | 132 | 2.0 | 8.0 | 0.00 | 0.04 | 0.04 | 63 | 1009.6 |
| 20260507144503 | 69 | 129 | 3.0 | 10.0 | 0.00 | 0.04 | 0.04 | 63 | 1009.6 |
| 20260507144003 | 69 | 137 | 3.0 | 9.0 | 0.00 | 0.04 | 0.04 | 63 | 1009.5 |
| 20260507143503 | 69 | 153 | 2.0 | 9.0 | 0.00 | 0.04 | 0.04 | 63 | 1009.5 |
| 20260507143003 | 69 | 134 | 3.0 | 10.0 | 0.00 | 0.04 | 0.04 | 64 | 1009.6 |
| 20260507142503 | 69 | 139 | 3.0 | 9.0 | 0.00 | 0.04 | 0.04 | 64 | 1009.6 |
| 20260507142003 | 69 | 134 | 2.0 | 7.0 | 0.00 | 0.04 | 0.04 | 64 | 1009.7 |
| 20260507141503 | 69 | 135 | 2.0 | 8.0 | 0.00 | 0.04 | 0.04 | 65 | 1009.8 |
| 20260507141003 | 69 | 131 | 2.0 | 8.0 | 0.00 | 0.04 | 0.04 | 65 | 1009.9 |
| 20260507140503 | 69 | 145 | 2.0 | 7.0 | 0.00 | 0.04 | 0.04 | 66 | 1010.0 |
| 20260507140003 | 69 | 138 | 3.0 | 9.0 | 0.00 | 0.04 | 0.04 | 66 | 1010.0 |
| 20260507135503 | 70 | 137 | 2.0 | 11.0 | 0.00 | 0.04 | 0.04 | 66 | 1010.0 |
| 20260507135003 | 70 | 153 | 1.0 | 4.0 | 0.00 | 0.04 | 0.04 | 67 | 1009.9 |
| 20260507134503 | 70 | 137 | 1.0 | 6.0 | 0.00 | 0.04 | 0.04 | 68 | 1010.0 |
| 20260507134003 | 69 | 155 | 2.0 | 6.0 | 0.00 | 0.04 | 0.04 | 68 | 1009.9 |
| 20260507133503 | 69 | 149 | 3.0 | 9.0 | 0.00 | 0.04 | 0.04 | 68 | 1010.1 |
| 20260507133003 | 69 | 152 | 2.0 | 7.0 | 0.00 | 0.04 | 0.04 | 69 | 1010.0 |
| 20260507132503 | 68 | 147 | 3.0 | 8.0 | 0.00 | 0.04 | 0.04 | 69 | 1009.9 |
| 20260507132003 | 68 | 144 | 4.0 | 9.0 | 0.00 | 0.04 | 0.04 | 69 | 1010.1 |
| 20260507131503 | 68 | 146 | 3.0 | 8.0 | 0.00 | 0.04 | 0.04 | 70 | 1010.2 |
| 20260507131003 | 67 | 150 | 6.0 | 11.0 | 0.00 | 0.04 | 0.04 | 70 | 1010.2 |
| 20260507130503 | 67 | 142 | 6.0 | 11.0 | 0.00 | 0.04 | 0.04 | 70 | 1010.3 |
| 20260507130003 | 68 | 160 | 4.0 | 10.0 | 0.00 | 0.04 | 0.04 | 71 | 1010.2 |
| 20260507125503 | 67 | 163 | 4.0 | 11.0 | 0.00 | 0.04 | 0.04 | 71 | 1010.3 |
| 20260507125003 | 67 | 151 | 5.0 | 12.0 | 0.00 | 0.04 | 0.04 | 71 | 1010.3 |
| 20260507124503 | 67 | 145 | 6.0 | 11.0 | 0.00 | 0.04 | 0.04 | 71 | 1010.4 |
| 20260507124003 | 67 | 149 | 5.0 | 12.0 | 0.00 | 0.04 | 0.04 | 71 | 1010.4 |
| 20260507123503 | 67 | 150 | 4.0 | 8.0 | 0.00 | 0.04 | 0.04 | 71 | 1010.5 |
| 20260507123003 | 67 | 143 | 4.0 | 9.0 | 0.00 | 0.04 | 0.04 | 71 | 1010.6 |
| 20260507122503 | 67 | 149 | 4.0 | 11.0 | 0.00 | 0.04 | 0.04 | 71 | 1010.6 |
| 20260507122004 | 67 | 144 | 5.0 | 11.0 | 0.00 | 0.04 | 0.04 | 71 | 1010.4 |
| 20260507121503 | 67 | 153 | 5.0 | 12.0 | 0.00 | 0.04 | 0.04 | 71 | 1010.6 |
| 20260507121003 | 67 | 162 | 4.0 | 8.0 | 0.00 | 0.04 | 0.04 | 71 | 1010.5 |
| 20260507120503 | 66 | 151 | 6.0 | 11.0 | 0.00 | 0.04 | 0.04 | 71 | 1010.6 |
| 20260507120004 | 67 | 143 | 7.0 | 13.0 | 0.00 | 0.04 | 0.04 | 71 | 1010.6 |
| 20260507115503 | 67 | 141 | 5.0 | 13.0 | 0.00 | 0.04 | 0.04 | 71 | 1010.7 |
| 20260507115003 | 68 | 160 | 3.0 | 9.0 | 0.00 | 0.04 | 0.04 | 71 | 1011.0 |
| 20260507114503 | 67 | 160 | 4.0 | 8.0 | 0.00 | 0.04 | 0.04 | 71 | 1011.1 |
| 20260507114003 | 67 | 153 | 4.0 | 11.0 | 0.00 | 0.04 | 0.04 | 72 | 1011.0 |
| 20260507113503 | 67 | 161 | 4.0 | 11.0 | 0.00 | 0.04 | 0.04 | 72 | 1011.1 |
| 20260507113003 | 67 | 168 | 2.0 | 6.0 | 0.00 | 0.04 | 0.04 | 72 | 1010.9 |
| 20260507112503 | 67 | 156 | 5.0 | 12.0 | 0.00 | 0.04 | 0.04 | 72 | 1010.9 |
| 20260507112003 | 67 | 152 | 5.0 | 11.0 | 0.00 | 0.04 | 0.04 | 72 | 1010.9 |
| 20260507111504 | 67 | 166 | 4.0 | 11.0 | 0.00 | 0.04 | 0.04 | 72 | 1011.0 |
| 20260507111003 | 67 | 155 | 2.0 | 7.0 | 0.00 | 0.04 | 0.04 | 72 | 1011.2 |
| 20260507110503 | 66 | 170 | 2.0 | 9.0 | 0.00 | 0.04 | 0.04 | 71 | 1011.1 |
| 20260507110003 | 65 | 144 | 2.0 | 11.0 | 0.00 | 0.04 | 0.04 | 72 | 1011.1 |
| 20260507105503 | 65 | 145 | 4.0 | 10.0 | 0.00 | 0.04 | 0.04 | 72 | 1011.2 |
| 20260507105003 | 65 | 166 | 2.0 | 6.0 | 0.00 | 0.04 | 0.04 | 72 | 1011.2 |
| 20260507104504 | 65 | 147 | 5.0 | 11.0 | 0.00 | 0.04 | 0.04 | 72 | 1011.2 |
| 20260507104003 | 65 | 145 | 4.0 | 11.0 | 0.00 | 0.04 | 0.04 | 72 | 1011.2 |
| 20260507103503 | 65 | 145 | 5.0 | 13.0 | 0.00 | 0.04 | 0.04 | 72 | 1011.1 |
| 20260507103003 | 65 | 145 | 3.0 | 10.0 | 0.00 | 0.04 | 0.04 | 72 | 1011.2 |
| 20260507102503 | 65 | 143 | 3.0 | 11.0 | 0.00 | 0.04 | 0.04 | 72 | 1011.3 |
| 20260507102003 | 65 | 139 | 3.0 | 10.0 | 0.00 | 0.04 | 0.04 | 72 | 1011.2 |
| 20260507101503 | 65 | 152 | 3.0 | 9.0 | 0.00 | 0.04 | 0.04 | 72 | 1011.1 |
| 20260507101003 | 65 | 139 | 3.0 | 8.0 | 0.00 | 0.04 | 0.04 | 72 | 1011.1 |
| 20260507100503 | 65 | 153 | 4.0 | 10.0 | 0.00 | 0.04 | 0.04 | 72 | 1011.2 |
| 20260507100003 | 65 | 155 | 4.0 | 8.0 | 0.00 | 0.04 | 0.04 | 72 | 1011.3 |
| 20260507095503 | 64 | 142 | 5.0 | 12.0 | 0.00 | 0.04 | 0.04 | 72 | 1011.3 |
| 20260507095003 | 64 | 127 | 4.0 | 12.0 | 0.00 | 0.04 | 0.04 | 72 | 1011.2 |
| 20260507094503 | 64 | 147 | 7.0 | 15.0 | 0.00 | 0.04 | 0.04 | 72 | 1011.2 |
| 20260507094003 | 64 | 148 | 6.0 | 16.0 | 0.00 | 0.04 | 0.04 | 72 | 1011.2 |
| 20260507093503 | 65 | 143 | 5.0 | 13.0 | 0.00 | 0.04 | 0.04 | 72 | 1011.1 |
| 20260507093003 | 65 | 147 | 4.0 | 12.0 | 0.00 | 0.04 | 0.04 | 72 | 1011.2 |
| 20260507092503 | 65 | 144 | 6.0 | 17.0 | 0.00 | 0.04 | 0.04 | 72 | 1011.2 |
| 20260507092003 | 65 | 138 | 5.0 | 14.0 | 0.00 | 0.04 | 0.04 | 73 | 1011.1 |
| 20260507091503 | 64 | 147 | 6.0 | 17.0 | 0.00 | 0.04 | 0.04 | 73 | 1010.9 |
| 20260507091003 | 64 | 134 | 6.0 | 15.0 | 0.00 | 0.04 | 0.04 | 73 | 1010.7 |
| 20260507090503 | 64 | 141 | 4.0 | 13.0 | 0.00 | 0.04 | 0.04 | 73 | 1010.9 |
| 20260507090004 | 64 | 130 | 4.0 | 14.0 | 0.00 | 0.04 | 0.04 | 73 | 1010.9 |
| 20260507085503 | 64 | 129 | 6.0 | 14.0 | 0.00 | 0.04 | 0.04 | 73 | 1010.7 |
| 20260507085003 | 64 | 136 | 4.0 | 14.0 | 0.00 | 0.04 | 0.04 | 73 | 1010.6 |
| 20260507084503 | 64 | 121 | 4.0 | 14.0 | 0.00 | 0.04 | 0.04 | 73 | 1010.5 |
| 20260507084003 | 63 | 129 | 7.0 | 18.0 | 0.00 | 0.04 | 0.04 | 73 | 1010.5 |
| 20260507083503 | 63 | 134 | 5.0 | 13.0 | 0.00 | 0.04 | 0.04 | 73 | 1010.2 |
| 20260507083003 | 63 | 127 | 7.0 | 18.0 | 0.00 | 0.04 | 0.04 | 73 | 1010.1 |
| 20260507082503 | 63 | 128 | 6.0 | 13.0 | 0.00 | 0.04 | 0.04 | 73 | 1010.2 |
| 20260507082003 | 63 | 121 | 8.0 | 17.0 | 0.00 | 0.04 | 0.04 | 73 | 1010.2 |
| 20260507081503 | 63 | 115 | 5.0 | 13.0 | 0.00 | 0.04 | 0.04 | 74 | 1010.4 |
| 20260507081003 | 63 | 87 | 4.0 | 14.0 | 0.00 | 0.04 | 0.04 | 74 | 1010.5 |
| 20260507080503 | 63 | 91 | 6.0 | 18.0 | 0.00 | 0.04 | 0.04 | 74 | 1010.3 |
| 20260507080003 | 63 | 107 | 6.0 | 16.0 | 0.00 | 0.04 | 0.04 | 74 | 1010.3 |
| 20260507075503 | 63 | 123 | 5.0 | 12.0 | 0.00 | 0.04 | 0.04 | 74 | 1010.5 |
| 20260507075003 | 62 | 135 | 5.0 | 13.0 | 0.00 | 0.04 | 0.04 | 74 | 1010.8 |
| 20260507074503 | 62 | 126 | 4.0 | 14.0 | 0.00 | 0.04 | 0.04 | 74 | 1010.7 |
| 20260507074003 | 63 | 74 | 4.0 | 10.0 | 0.00 | 0.04 | 0.04 | 74 | 1010.7 |
| 20260507073503 | 63 | 106 | 5.0 | 13.0 | 0.00 | 0.04 | 0.04 | 74 | 1011.0 |
| 20260507073003 | 62 | 87 | 5.0 | 12.0 | 0.00 | 0.04 | 0.04 | 74 | 1011.0 |
| 20260507072503 | 62 | 69 | 5.0 | 13.0 | 0.00 | 0.04 | 0.04 | 74 | 1011.0 |
| 20260507072003 | 62 | 79 | 5.0 | 12.0 | 0.00 | 0.04 | 0.04 | 74 | 1011.2 |
| 20260507071503 | 63 | 73 | 5.0 | 12.0 | 0.00 | 0.04 | 0.04 | 74 | 1011.4 |
| 20260507071003 | 62 | 78 | 5.0 | 15.0 | 0.00 | 0.04 | 0.04 | 74 | 1011.6 |
| 20260507070503 | 62 | 56 | 4.0 | 9.0 | 0.00 | 0.04 | 0.04 | 75 | 1011.7 |
| 20260507070005 | 62 | 102 | 2.0 | 6.0 | 0.00 | 0.04 | 0.04 | 75 | 1012.1 |
| 20260507065503 | 62 | 119 | 2.0 | 5.0 | 0.00 | 0.04 | 0.04 | 75 | 1012.2 |
| 20260507065003 | 62 | 87 | 3.0 | 12.0 | 0.00 | 0.04 | 0.04 | 75 | 1011.8 |
| 20260507064503 | 62 | 66 | 3.0 | 8.0 | 0.00 | 0.04 | 0.04 | 74 | 1011.9 |
| 20260507064003 | 62 | 99 | 2.0 | 5.0 | 0.00 | 0.04 | 0.04 | 74 | 1012.1 |
| 20260507063503 | 62 | 63 | 3.0 | 10.0 | 0.00 | 0.04 | 0.04 | 74 | 1011.9 |
| 20260507063003 | 62 | 55 | 3.0 | 7.0 | 0.00 | 0.04 | 0.04 | 74 | 1011.6 |
| 20260507062503 | 62 | 49 | 3.0 | 5.0 | 0.00 | 0.04 | 0.04 | 74 | 1011.7 |
| 20260507062003 | 62 | 59 | 3.0 | 5.0 | 0.00 | 0.04 | 0.04 | 74 | 1011.8 |
| 20260507061503 | 61 | 52 | 4.0 | 7.0 | 0.00 | 0.04 | 0.04 | 74 | 1011.7 |
| 20260507061003 | 61 | 42 | 5.0 | 9.0 | 0.00 | 0.04 | 0.04 | 74 | 1011.6 |
| 20260507060503 | 61 | 40 | 4.0 | 7.0 | 0.00 | 0.04 | 0.04 | 74 | 1011.4 |
| 20260507060003 | 61 | 43 | 4.0 | 6.0 | 0.00 | 0.04 | 0.04 | 74 | 1011.6 |
| 20260507055503 | 61 | 31 | 5.0 | 9.0 | 0.00 | 0.04 | 0.04 | 74 | 1011.5 |
| 20260507055003 | 61 | 31 | 4.0 | 7.0 | 0.00 | 0.04 | 0.04 | 74 | 1011.4 |
| 20260507054503 | 61 | 39 | 4.0 | 9.0 | 0.00 | 0.04 | 0.04 | 74 | 1011.5 |
| 20260507054003 | 61 | 40 | 3.0 | 6.0 | 0.00 | 0.04 | 0.04 | 74 | 1011.7 |
| 20260507053503 | 61 | 47 | 3.0 | 6.0 | 0.00 | 0.04 | 0.04 | 75 | 1011.6 |
| 20260507053003 | 61 | 49 | 4.0 | 11.0 | 0.00 | 0.04 | 0.04 | 74 | 1011.5 |
| 20260507052503 | 61 | 51 | 5.0 | 10.0 | 0.00 | 0.04 | 0.04 | 74 | 1011.5 |
| 20260507052003 | 61 | 71 | 4.0 | 8.0 | 0.00 | 0.04 | 0.04 | 74 | 1011.4 |
| 20260507051503 | 61 | 71 | 2.0 | 8.0 | 0.00 | 0.04 | 0.04 | 74 | 1011.4 |
| 20260507051003 | 61 | 78 | 3.0 | 9.0 | 0.00 | 0.04 | 0.04 | 75 | 1011.4 |
| 20260507050503 | 61 | 64 | 2.0 | 7.0 | 0.00 | 0.04 | 0.04 | 74 | 1011.3 |
| 20260507050004 | 61 | 83 | 2.0 | 8.0 | 0.00 | 0.04 | 0.04 | 74 | 1011.1 |
| 20260507045503 | 61 | 100 | 2.0 | 9.0 | 0.00 | 0.04 | 0.04 | 74 | 1010.9 |
| 20260507045003 | 61 | 71 | 3.0 | 9.0 | 0.00 | 0.04 | 0.04 | 74 | 1010.5 |
| 20260507044503 | 61 | 52 | 6.0 | 11.0 | 0.00 | 0.04 | 0.04 | 75 | 1010.0 |
| 20260507044003 | 60 | 55 | 9.0 | 16.0 | 0.00 | 0.04 | 0.04 | 74 | 1009.8 |
| 20260507043503 | 61 | 55 | 7.0 | 14.0 | 0.00 | 0.04 | 0.04 | 74 | 1009.6 |
| 20260507043003 | 61 | 73 | 8.0 | 17.0 | 0.00 | 0.04 | 0.04 | 74 | 1009.6 |
| 20260507042503 | 61 | 59 | 8.0 | 14.0 | 0.00 | 0.04 | 0.04 | 74 | 1009.6 |
| 20260507042003 | 61 | 52 | 11.0 | 17.0 | 0.00 | 0.04 | 0.04 | 74 | 1009.8 |
| 20260507041503 | 61 | 58 | 9.0 | 15.0 | 0.00 | 0.04 | 0.04 | 74 | 1010.0 |
| 20260507041003 | 61 | 57 | 9.0 | 13.0 | 0.00 | 0.04 | 0.04 | 74 | 1010.2 |
| 20260507040503 | 61 | 54 | 8.0 | 13.0 | 0.02 | 0.04 | 0.04 | 74 | 1010.3 |
| 20260507040003 | 61 | 53 | 6.0 | 11.0 | 0.02 | 0.04 | 0.04 | 74 | 1010.3 |
| 20260507035503 | 61 | 55 | 5.0 | 10.0 | 0.02 | 0.04 | 0.04 | 74 | 1010.6 |
| 20260507035003 | 61 | 58 | 5.0 | 11.0 | 0.02 | 0.04 | 0.04 | 74 | 1010.4 |
| 20260507034503 | 61 | 57 | 5.0 | 11.0 | 0.02 | 0.04 | 0.04 | 74 | 1010.5 |
| 20260507034003 | 61 | 56 | 6.0 | 11.0 | 0.02 | 0.04 | 0.04 | 74 | 1010.5 |
| 20260507033503 | 61 | 52 | 6.0 | 13.0 | 0.02 | 0.04 | 0.04 | 74 | 1010.3 |
| 20260507033003 | 61 | 48 | 6.0 | 13.0 | 0.02 | 0.04 | 0.04 | 74 | 1010.2 |
| 20260507032503 | 61 | 50 | 4.0 | 9.0 | 0.02 | 0.04 | 0.04 | 74 | 1010.3 |
| 20260507032003 | 61 | 59 | 5.0 | 9.0 | 0.02 | 0.04 | 0.04 | 74 | 1010.3 |
| 20260507031503 | 61 | 51 | 6.0 | 11.0 | 0.02 | 0.04 | 0.04 | 74 | 1010.2 |
| 20260507031003 | 61 | 56 | 5.0 | 8.0 | 0.02 | 0.04 | 0.04 | 74 | 1010.3 |
| 20260507030503 | 61 | 57 | 4.0 | 6.0 | 0.00 | 0.02 | 0.02 | 74 | 1010.6 |
| 20260507030003 | 61 | 61 | 1.0 | 5.0 | 0.00 | 0.02 | 0.02 | 74 | 1010.6 |
| 20260507025503 | 61 | 60 | 2.0 | 4.0 | 0.00 | 0.02 | 0.02 | 74 | 1010.6 |
| 20260507025003 | 61 | 60 | 1.0 | 5.0 | 0.00 | 0.02 | 0.02 | 74 | 1010.6 |
| 20260507024503 | 61 | 82 | 1.0 | 4.0 | 0.00 | 0.02 | 0.02 | 74 | 1010.6 |
| 20260507024003 | 61 | 77 | 1.0 | 4.0 | 0.00 | 0.02 | 0.02 | 74 | 1010.5 |
| 20260507023503 | 61 | 86 | 2.0 | 7.0 | 0.00 | 0.02 | 0.02 | 74 | 1010.4 |
| 20260507023003 | 61 | 93 | 2.0 | 7.0 | 0.00 | 0.02 | 0.02 | 74 | 1010.3 |
| 20260507022503 | 62 | 94 | 2.0 | 10.0 | 0.00 | 0.02 | 0.02 | 74 | 1010.5 |
| 20260507022003 | 62 | 124 | 2.0 | 9.0 | 0.00 | 0.02 | 0.02 | 74 | 1010.4 |
| 20260507021503 | 61 | 118 | 3.0 | 8.0 | 0.00 | 0.02 | 0.02 | 74 | 1010.4 |
| 20260507021003 | 61 | 116 | 1.0 | 6.0 | 0.00 | 0.02 | 0.02 | 74 | 1010.3 |
| 20260507020503 | 61 | 64 | 2.0 | 7.0 | 0.02 | 0.02 | 0.02 | 74 | 1010.2 |
| 20260507020003 | 62 | 93 | 3.0 | 8.0 | 0.02 | 0.02 | 0.02 | 74 | 1009.9 |
| 20260507015503 | 62 | 68 | 2.0 | 6.0 | 0.02 | 0.02 | 0.02 | 74 | 1009.7 |
| 20260507015003 | 62 | 70 | 5.0 | 10.0 | 0.02 | 0.02 | 0.02 | 74 | 1009.5 |
| 20260507014503 | 62 | 67 | 4.0 | 10.0 | 0.02 | 0.02 | 0.02 | 74 | 1009.4 |
| 20260507014003 | 62 | 62 | 4.0 | 11.0 | 0.02 | 0.02 | 0.02 | 74 | 1009.4 |
| 20260507013503 | 62 | 59 | 6.0 | 14.0 | 0.02 | 0.02 | 0.02 | 73 | 1009.3 |
| 20260507013003 | 62 | 30 | 11.0 | 16.0 | 0.02 | 0.02 | 0.02 | 73 | 1008.8 |
| 20260507012503 | 62 | 24 | 9.0 | 17.0 | 0.02 | 0.02 | 0.02 | 73 | 1008.8 |
| 20260507012003 | 62 | 26 | 4.0 | 7.0 | 0.02 | 0.02 | 0.02 | 73 | 1010.0 |
| 20260507011503 | 62 | 52 | 0.0 | 2.0 | 0.02 | 0.02 | 0.02 | 73 | 1010.5 |
| 20260507011003 | 62 | 74 | 0.0 | 2.0 | 0.02 | 0.02 | 0.02 | 73 | 1010.5 |
| 20260507010503 | 62 | 55 | 0.0 | 2.0 | 0.00 | 0.00 | 0.00 | 73 | 1010.2 |
| 20260507010003 | 62 | 59 | 1.0 | 2.0 | 0.00 | 0.00 | 0.00 | 73 | 1010.1 |
| 20260507005503 | 62 | 115 | 1.0 | 2.0 | 0.00 | 0.00 | 0.00 | 73 | 1010.1 |
| 20260507005003 | 62 | 66 | 1.0 | 7.0 | 0.00 | 0.00 | 0.00 | 73 | 1009.9 |
| 20260507004503 | 62 | 69 | 3.0 | 6.0 | 0.00 | 0.00 | 0.00 | 73 | 1009.7 |
| 20260507004003 | 62 | 143 | 3.0 | 9.0 | 0.00 | 0.00 | 0.00 | 73 | 1010.1 |
| 20260507003503 | 62 | 128 | 1.0 | 4.0 | 0.00 | 0.00 | 0.00 | 73 | 1010.0 |
| 20260507003003 | 62 | 95 | 1.0 | 4.0 | 0.00 | 0.00 | 0.00 | 73 | 1009.7 |
| 20260507002503 | 62 | 108 | 1.0 | 7.0 | 0.00 | 0.00 | 0.00 | 73 | 1009.6 |
| 20260507002003 | 62 | 93 | 1.0 | 5.0 | 0.00 | 0.00 | 0.00 | 73 | 1009.7 |
| 20260507001503 | 62 | 99 | 1.0 | 4.0 | 0.00 | 0.00 | 0.00 | 73 | 1009.6 |
| 20260507001003 | 62 | 98 | 1.0 | 4.0 | 0.00 | 0.00 | 0.00 | 73 | 1009.6 |
| 20260507000503 | 62 | 83 | 1.0 | 5.0 | 0.00 | 0.00 | 0.00 | 73 | 1009.7 |
| 20260507000003 | 62 | 126 | 1.0 | 6.0 | 0.00 | 0.00 | 0.00 | 73 | 1009.8 |
| 20260506235503 | 62 | 108 | 2.0 | 6.0 | 0.00 | 0.00 | 0.00 | 73 | 1009.7 |
| 20260506235003 | 62 | 117 | 2.0 | 5.0 | 0.00 | 0.00 | 0.00 | 73 | 1009.8 |
| 20260506234503 | 62 | 123 | 3.0 | 7.0 | 0.00 | 0.00 | 0.00 | 73 | 1009.9 |
| 20260506234003 | 62 | 135 | 2.0 | 6.0 | 0.00 | 0.00 | 0.00 | 73 | 1009.9 |
| 20260506233503 | 62 | 119 | 2.0 | 5.0 | 0.00 | 0.00 | 0.00 | 73 | 1009.8 |
| 20260506233003 | 62 | 140 | 3.0 | 7.0 | 0.00 | 0.00 | 0.00 | 73 | 1009.8 |
| 20260506232503 | 62 | 130 | 3.0 | 7.0 | 0.00 | 0.00 | 0.00 | 73 | 1010.0 |
| 20260506232003 | 62 | 100 | 1.0 | 6.0 | 0.00 | 0.00 | 0.00 | 73 | 1009.8 |
| 20260506231503 | 62 | 74 | 2.0 | 6.0 | 0.00 | 0.00 | 0.00 | 72 | 1009.6 |
| 20260506231003 | 62 | 123 | 1.0 | 5.0 | 0.00 | 0.00 | 0.00 | 72 | 1009.8 |
| 20260506230503 | 62 | 106 | 2.0 | 6.0 | 0.00 | 0.00 | 0.00 | 72 | 1009.9 |
| 20260506230003 | 63 | 71 | 3.0 | 9.0 | 0.00 | 0.00 | 0.00 | 72 | 1009.6 |
| 20260506225503 | 63 | 87 | 2.0 | 8.0 | 0.00 | 0.00 | 0.00 | 72 | 1009.8 |
| 20260506225003 | 63 | 114 | 2.0 | 6.0 | 0.00 | 0.00 | 0.00 | 72 | 1010.2 |
| 20260506224503 | 63 | 125 | 2.0 | 8.0 | 0.00 | 0.00 | 0.00 | 72 | 1010.3 |
| 20260506224003 | 63 | 122 | 2.0 | 6.0 | 0.00 | 0.00 | 0.00 | 72 | 1010.3 |
| 20260506223503 | 63 | 116 | 1.0 | 4.0 | 0.00 | 0.00 | 0.00 | 72 | 1010.2 |
| 20260506223003 | 63 | 127 | 2.0 | 5.0 | 0.00 | 0.00 | 0.00 | 72 | 1010.2 |
| 20260506222503 | 63 | 130 | 1.0 | 6.0 | 0.00 | 0.00 | 0.00 | 72 | 1010.2 |
| 20260506222003 | 63 | 139 | 2.0 | 9.0 | 0.00 | 0.00 | 0.00 | 72 | 1010.0 |
| 20260506221504 | 63 | 134 | 2.0 | 8.0 | 0.00 | 0.00 | 0.00 | 72 | 1009.9 |
| 20260506221003 | 63 | 130 | 3.0 | 10.0 | 0.00 | 0.00 | 0.00 | 72 | 1010.0 |
| 20260506220503 | 63 | 126 | 3.0 | 9.0 | 0.00 | 0.00 | 0.00 | 72 | 1009.9 |
| 20260506220003 | 63 | 136 | 4.0 | 9.0 | 0.00 | 0.00 | 0.00 | 72 | 1009.9 |
| 20260506215503 | 63 | 144 | 3.0 | 10.0 | 0.00 | 0.00 | 0.00 | 72 | 1010.0 |
| 20260506215003 | 63 | 137 | 4.0 | 10.0 | 0.00 | 0.00 | 0.00 | 72 | 1010.0 |
| 20260506214503 | 63 | 146 | 4.0 | 11.0 | 0.00 | 0.00 | 0.00 | 72 | 1009.9 |
| 20260506214003 | 63 | 142 | 3.0 | 10.0 | 0.00 | 0.00 | 0.00 | 72 | 1009.9 |
| 20260506213503 | 63 | 140 | 5.0 | 12.0 | 0.00 | 0.00 | 0.00 | 72 | 1009.9 |
| 20260506213003 | 63 | 138 | 5.0 | 12.0 | 0.00 | 0.00 | 0.00 | 72 | 1009.9 |
| 20260506212503 | 63 | 140 | 5.0 | 15.0 | 0.00 | 0.00 | 0.00 | 72 | 1009.8 |
| 20260506212003 | 63 | 140 | 6.0 | 14.0 | 0.00 | 0.00 | 0.00 | 72 | 1009.9 |
| 20260506211503 | 63 | 150 | 4.0 | 10.0 | 0.00 | 0.00 | 0.00 | 72 | 1010.0 |
| 20260506211003 | 63 | 143 | 5.0 | 13.0 | 0.00 | 0.00 | 0.00 | 72 | 1009.9 |
| 20260506210503 | 63 | 148 | 5.0 | 11.0 | 0.00 | 0.00 | 0.00 | 72 | 1009.9 |
| 20260506210003 | 63 | 140 | 6.0 | 14.0 | 0.00 | 0.00 | 0.00 | 72 | 1010.0 |
| 20260506205503 | 63 | 136 | 5.0 | 14.0 | 0.00 | 0.00 | 0.00 | 72 | 1009.8 |
| 20260506205003 | 63 | 132 | 5.0 | 12.0 | 0.00 | 0.00 | 0.00 | 72 | 1009.9 |
| 20260506204503 | 63 | 138 | 4.0 | 13.0 | 0.00 | 0.00 | 0.00 | 72 | 1009.9 |
| 20260506204003 | 63 | 129 | 5.0 | 10.0 | 0.00 | 0.00 | 0.00 | 72 | 1009.9 |
| 20260506203503 | 63 | 146 | 5.0 | 10.0 | 0.00 | 0.00 | 0.00 | 72 | 1010.0 |
| 20260506203003 | 63 | 139 | 4.0 | 9.0 | 0.00 | 0.00 | 0.00 | 72 | 1010.0 |
| 20260506202503 | 63 | 145 | 5.0 | 12.0 | 0.00 | 0.00 | 0.00 | 72 | 1009.9 |
| 20260506202003 | 63 | 146 | 5.0 | 11.0 | 0.00 | 0.00 | 0.00 | 72 | 1009.9 |
| 20260506201503 | 63 | 144 | 6.0 | 15.0 | 0.00 | 0.00 | 0.00 | 72 | 1009.7 |
| 20260506201003 | 63 | 141 | 4.0 | 10.0 | 0.00 | 0.00 | 0.00 | 72 | 1009.9 |
| 20260506200503 | 63 | 139 | 6.0 | 15.0 | 0.00 | 0.00 | 0.00 | 72 | 1009.8 |
| 20260506200003 | 63 | 143 | 5.0 | 15.0 | 0.00 | 0.00 | 0.00 | 72 | 1009.9 |
| 20260506195503 | 63 | 132 | 5.0 | 12.0 | 0.00 | 0.00 | 0.00 | 72 | 1009.6 |
| 20260506195003 | 63 | 137 | 4.0 | 12.0 | 0.00 | 0.00 | 0.00 | 72 | 1009.6 |
| 20260506194003 | 63 | 130 | 5.0 | 10.0 | 0.00 | 0.00 | 0.00 | 72 | 1009.6 |
| 20260506193503 | 63 | 143 | 3.0 | 8.0 | 0.00 | 0.00 | 0.00 | 72 | 1009.6 |
| 20260506193003 | 63 | 123 | 3.0 | 9.0 | 0.00 | 0.00 | 0.00 | 72 | 1009.6 |
| 20260506192503 | 63 | 130 | 4.0 | 14.0 | 0.00 | 0.00 | 0.00 | 72 | 1009.5 |
| 20260506192003 | 63 | 124 | 4.0 | 12.0 | 0.00 | 0.00 | 0.00 | 72 | 1009.5 |
| 20260506191503 | 63 | 135 | 3.0 | 6.0 | 0.00 | 0.00 | 0.00 | 72 | 1009.6 |
| 20260506191003 | 63 | 125 | 2.0 | 5.0 | 0.00 | 0.00 | 0.00 | 72 | 1009.5 |
| 20260506190503 | 63 | 140 | 3.0 | 9.0 | 0.00 | 0.00 | 0.00 | 72 | 1009.5 |
| 20260506190003 | 63 | 124 | 4.0 | 9.0 | 0.00 | 0.00 | 0.00 | 72 | 1009.4 |
| 20260506185503 | 63 | 126 | 4.0 | 7.0 | 0.00 | 0.00 | 0.00 | 72 | 1009.4 |
| 20260506185003 | 63 | 118 | 3.0 | 10.0 | 0.00 | 0.00 | 0.00 | 72 | 1009.4 |
| 20260506184503 | 63 | 133 | 4.0 | 12.0 | 0.00 | 0.00 | 0.00 | 72 | 1009.3 |
| 20260506184003 | 63 | 126 | 4.0 | 9.0 | 0.00 | 0.00 | 0.00 | 72 | 1009.3 |
| 20260506183503 | 63 | 151 | 4.0 | 9.0 | 0.00 | 0.00 | 0.00 | 72 | 1009.4 |
| 20260506183003 | 63 | 121 | 3.0 | 12.0 | 0.00 | 0.00 | 0.00 | 72 | 1009.4 |
| 20260506182503 | 63 | 121 | 3.0 | 11.0 | 0.00 | 0.00 | 0.00 | 72 | 1009.5 |
| 20260506182003 | 63 | 136 | 6.0 | 13.0 | 0.00 | 0.00 | 0.00 | 72 | 1009.5 |
| 20260506181503 | 63 | 126 | 5.0 | 12.0 | 0.00 | 0.00 | 0.00 | 72 | 1009.6 |
| 20260506181003 | 63 | 119 | 5.0 | 13.0 | 0.00 | 0.00 | 0.00 | 72 | 1009.5 |
| 20260506180503 | 63 | 131 | 4.0 | 9.0 | 0.00 | 0.00 | 0.00 | 72 | 1009.4 |
| 20260506180004 | 63 | 135 | 4.0 | 12.0 | 0.00 | 0.00 | 0.00 | 72 | 1009.6 |
| 20260506175503 | 63 | 131 | 3.0 | 11.0 | 0.00 | 0.00 | 0.00 | 72 | 1009.5 |
| 20260506175003 | 63 | 130 | 4.0 | 10.0 | 0.00 | 0.00 | 0.00 | 72 | 1009.5 |
| 20260506174503 | 63 | 127 | 5.0 | 12.0 | 0.00 | 0.00 | 0.00 | 72 | 1009.4 |
| 20260506174003 | 64 | 135 | 3.0 | 11.0 | 0.00 | 0.00 | 0.00 | 72 | 1009.4 |
| 20260506173503 | 64 | 121 | 4.0 | 13.0 | 0.00 | 0.00 | 0.00 | 72 | 1009.4 |
| 20260506173003 | 64 | 128 | 3.0 | 7.0 | 0.00 | 0.00 | 0.00 | 72 | 1009.5 |
| 20260506172503 | 64 | 145 | 5.0 | 12.0 | 0.00 | 0.00 | 0.00 | 72 | 1009.3 |
| 20260506172003 | 64 | 132 | 3.0 | 9.0 | 0.00 | 0.00 | 0.00 | 72 | 1009.4 |
| 20260506171503 | 63 | 129 | 4.0 | 11.0 | 0.00 | 0.00 | 0.00 | 72 | 1009.2 |
| 20260506171003 | 64 | 117 | 4.0 | 11.0 | 0.00 | 0.00 | 0.00 | 72 | 1009.1 |
| 20260506170503 | 64 | 130 | 5.0 | 11.0 | 0.00 | 0.00 | 0.00 | 72 | 1008.8 |
| 20260506170003 | 64 | 136 | 4.0 | 11.0 | 0.00 | 0.00 | 0.00 | 72 | 1009.0 |
| 20260506165503 | 64 | 117 | 4.0 | 13.0 | 0.00 | 0.00 | 0.00 | 72 | 1009.1 |
| 20260506165003 | 64 | 135 | 4.0 | 11.0 | 0.00 | 0.00 | 0.00 | 72 | 1009.1 |
| 20260506164503 | 64 | 128 | 4.0 | 11.0 | 0.00 | 0.00 | 0.00 | 72 | 1009.1 |
| 20260506164003 | 64 | 137 | 5.0 | 13.0 | 0.00 | 0.00 | 0.00 | 72 | 1009.3 |
| 20260506163503 | 64 | 132 | 5.0 | 14.0 | 0.00 | 0.00 | 0.00 | 72 | 1009.3 |
| 20260506163003 | 64 | 140 | 5.0 | 12.0 | 0.00 | 0.00 | 0.00 | 72 | 1009.3 |
| 20260506162503 | 64 | 142 | 5.0 | 13.0 | 0.00 | 0.00 | 0.00 | 72 | 1009.4 |
| 20260506162003 | 64 | 130 | 4.0 | 10.0 | 0.00 | 0.00 | 0.00 | 71 | 1009.3 |
| 20260506161503 | 64 | 115 | 4.0 | 9.0 | 0.00 | 0.00 | 0.00 | 72 | 1009.4 |
| 20260506161003 | 64 | 139 | 6.0 | 14.0 | 0.00 | 0.00 | 0.00 | 71 | 1009.4 |
| 20260506160503 | 64 | 135 | 5.0 | 12.0 | 0.00 | 0.00 | 0.00 | 71 | 1009.4 |
| 20260506160003 | 64 | 133 | 5.0 | 11.0 | 0.00 | 0.00 | 0.00 | 71 | 1009.3 |
| 20260506155503 | 65 | 133 | 5.0 | 12.0 | 0.00 | 0.00 | 0.00 | 71 | 1009.4 |
| 20260506155003 | 65 | 136 | 4.0 | 11.0 | 0.00 | 0.00 | 0.00 | 71 | 1009.5 |
| 20260506154503 | 65 | 147 | 5.0 | 10.0 | 0.00 | 0.00 | 0.00 | 71 | 1009.5 |
| 20260506154003 | 65 | 136 | 3.0 | 6.0 | 0.00 | 0.00 | 0.00 | 71 | 1009.5 |
| 20260506153503 | 65 | 129 | 5.0 | 13.0 | 0.00 | 0.00 | 0.00 | 71 | 1009.3 |
| 20260506153003 | 65 | 129 | 6.0 | 13.0 | 0.00 | 0.00 | 0.00 | 71 | 1009.4 |
| 20260506152503 | 65 | 144 | 5.0 | 12.0 | 0.00 | 0.00 | 0.00 | 71 | 1009.5 |
| 20260506152003 | 65 | 136 | 5.0 | 15.0 | 0.00 | 0.00 | 0.00 | 71 | 1009.5 |
| 20260506151503 | 65 | 140 | 6.0 | 16.0 | 0.00 | 0.00 | 0.00 | 71 | 1009.4 |
| 20260506151003 | 65 | 145 | 5.0 | 13.0 | 0.00 | 0.00 | 0.00 | 71 | 1009.5 |
| 20260506150503 | 65 | 130 | 5.0 | 15.0 | 0.00 | 0.00 | 0.00 | 71 | 1009.6 |